Flag for U.S.A. Weather past 2 weeks in Asheville, North Carolina, U.S.A.

Now
58 °F

Passing clouds.


Feels Like: 58 °F
Forecast: 56 / 77 °F
Wind: 5 mph from Northwest

Location: Asheville Regional Airport

Current Time: Sep 30, 2014 at 6:17:07 AM

Latest Report: Sep 30, 2014 at 5:54 AM


Visibility: 10 mi

Pressure: 29.95 "Hg

Humidity: 93%

Dew point: 56 °F

Location of AshevilleLocation

Historic Weather in Asheville — Graph

°F

Asheville temperature yesterday

Maximum temperature yesterday: 67 °F (at 12:54 PM)
Minimum temperature yesterday: 61 °F (at 10:54 PM)
Average temperature yesterday: 63 °F

Past Weeks' High & Low Weather Summary

 TemperatureHumidityPressure
High82 °F (Sep 21, 2:54 PM)100% (Sep 21, 6:54 AM)30.35 "Hg (Sep 21, 6:54 AM)
Low48 °F (Sep 24, 6:54 AM)29% (Sep 24, 2:54 PM)29.87 "Hg (Sep 21, 3:54 PM)
Average65 °F78%30.11 "Hg
* Reported Sep 15 4:54 AM — Sep 30 4:54 AM, Asheville, Weather by CustomWeather, © 2014

Note: Actual official high and low records may vary slightly from our data, if they occured in-between our weather recording intervals... More about our weather records

Advertising

Asheville weather history for previous 24 hours

 ConditionsComfort  
Time TempWeatherWind HumidityBarometerVisibility
4:54 AM
Sep 30
61 °FLow clouds.6 mph90%29.94 "Hg10 mi
3:54 AM61 °FLow clouds.6 mph93%29.95 "Hg9 mi
2:54 AM61 °FLow clouds.7 mph90%29.96 "Hg9 mi
1:54 AM60 °FLow clouds.6 mph96%29.96 "Hg9 mi
12:54 AM60 °FFog.No wind96%29.97 "Hg1 mi
12:00 AM61 °FFog.No wind97%30.04 "Hg2 mi
10:54 PM
Sep 29
61 °FFog.No wind97%29.99 "Hg1 mi
9:54 PM62 °FFog.No wind96%29.99 "Hg1 mi
9:02 PM62 °FMostly cloudy.No wind96%30.04 "Hg10 mi
8:54 PM62 °FOvercast.No wind96%29.98 "Hg10 mi
7:54 PM63 °FOvercast.No wind93%29.97 "Hg10 mi
6:54 PM64 °FOvercast.5 mph90%29.98 "Hg10 mi
6:01 PM65 °FMore clouds than sun.No wind87%30.03 "Hg7 mi
4:54 PM64 °FCloudy.5 mph90%29.98 "Hg7 mi
3:54 PM64 °FLight rain. Fog.6 mph87%29.99 "Hg5 mi
2:54 PM64 °FLight rain. Overcast.12 mph90%30.00 "Hg7 mi
2:01 PM66 °FMore clouds than sun.12 mph81%30.07 "Hg10 mi
12:54 PM67 °FMostly cloudy.6 mph85%30.02 "Hg10 mi
11:02 AM66 °FLight rain. Mostly cloudy.3 mph84%30.10 "Hg10 mi
10:54 AM66 °FLight rain. Mostly cloudy.No wind84%30.04 "Hg10 mi
9:54 AM64 °FLow clouds.No wind90%30.05 "Hg10 mi
9:04 AM63 °FMostly cloudy.No wind90%30.10 "Hg10 mi
8:54 AM63 °FLow clouds.No wind90%30.04 "Hg10 mi
7:54 AM62 °FOvercast.No wind93%30.04 "Hg10 mi
6:54 AM62 °FLight rain. Overcast.No wind93%30.03 "Hg10 mi
Weather by CustomWeather, © 2014

See weather overviewHow to use our weather pages